Location: PSU-Greenbush Astrophysical Observatory
(37.5140°N, 94.9880°W)
Time: 20:04:39
(UTC-06:00)

Transit 2A - Pass Details

Date: 31 January 2020
Orbit: 599 x 959 km, 66.7° (Epoch: 25 February)

Event Time Altitude Azimuth Distance (km) Brightness Sun altitude
Rises 18:30:11 0° 212° (SSW) 2,913 9.8 -9.8°
Reaches altitude 10° 18:32:30 10° 215° (SW) 1,978 8.9 -10.3°
Maximum altitude 18:36:53 70° 299° (WNW) 644 5.8 -11.1°
Drops below altitude 10° 18:41:12 10° 23° (NNE) 1,945 7.8 -11.9°
Enters shadow 18:42:25 - 25° (NNE) 2,436 8.3 -12.2°
Sets 18:43:28 0° 26° (NNE) 2,861 - -12.4°
